Location: Corcelles
(46.1547°N, 4.7234°E)
Time: 10:46:24
(UTC+00:00)

Cosmos 1900 - Pass Details

Date: 14 July 2020
Orbit: 682 x 740 km, 66.1° (Epoch: 05 August)

Event Time Altitude Azimuth Distance (km) Brightness Sun altitude
Exits shadow 02:29:33 19° 218° (SW) 1,626 5.5 -12.9°
Maximum altitude 02:33:05 80° 305° (NW) 717 4.3 -12.5°
Drops below altitude 10° 02:38:05 10° 33° (NNE) 2,196 8.4 -12.0°
Sets 02:40:28 0° 34° (NE) 3,129 9.8 -11.7°
